Flag for Austria Weather past 2 weeks in Linz, Upper Austria, Austria

Now
57 °F

Clear.


Feels Like: 56 °F
Forecast: 55 / 82 °F
Wind: 6 mph from Northwest

Location: Linz / Hoersching-Flughafen

Current Time: Jul 31, 2015 at 5:21:30 AM

Latest Report: Jul 31, 2015 at 4:50 AM


Visibility: 10 mi

Pressure: 30.04 "Hg

Humidity: 77%

Dew point: 50 °F

Location of LinzLocation

Historic Weather in Linz — Graph

°F

Linz temperature yesterday

Maximum temperature yesterday: 72 °F (at 4:20 PM)
Minimum temperature yesterday: 55 °F (at 5:20 AM)
Average temperature yesterday: 64 °F

Past Weeks' High & Low Weather Summary

 TemperatureHumidityPressure
High97 °F (Jul 22, 2:50 PM)100% (Jul 20, 4:50 AM)30.12 "Hg (Jul 20, 4:50 AM)
Low55 °F (Jul 26, 5:20 AM)22% (Jul 22, 2:50 PM)29.68 "Hg (Jul 25, 2:50 AM)
Average74 °F61%29.94 "Hg
* Reported Jul 16 3:20 AM — Jul 31 3:50 AM, Linz, Weather by CustomWeather, © 2015

Note: Actual official high and low records may vary slightly from our data, if they occured in-between our weather recording intervals... More about our weather records

Advertising

Linz weather history for previous 24 hours

 ConditionsComfort  
Time TempWeatherWind HumidityBarometerVisibility
3:50 AM
Fri, Jul 31
59 °FClear.1 mph77%30.04 "Hg10 mi
3:20 AM61 °FClear.3 mph72%30.04 "Hg10 mi
2:50 AM61 °FPassing clouds.3 mph72%30.04 "HgN/A
2:20 AM61 °FClear.1 mph72%30.04 "Hg10 mi
1:50 AM61 °FClear.6 mph72%30.04 "Hg10 mi
1:20 AM61 °FClear.3 mph72%30.04 "Hg10 mi
12:50 AM63 °FClear.3 mph68%30.04 "Hg10 mi
11:50 PM
Thu, Jul 30
63 °FClear.2 mph68%30.01 "Hg10 mi
11:20 PM64 °FPassing clouds.5 mph60%30.01 "HgN/A
10:50 PM64 °FPassing clouds.6 mph60%30.04 "HgN/A
10:20 PM63 °FPassing clouds.3 mph64%30.01 "HgN/A
9:50 PM64 °FPassing clouds.5 mph60%30.01 "HgN/A
9:20 PM64 °FScattered clouds.5 mph56%30.01 "HgN/A
8:50 PM64 °FScattered clouds.3 mph56%29.98 "HgN/A
8:20 PM66 °FScattered clouds.3 mph52%29.98 "HgN/A
7:50 PM66 °FScattered clouds.3 mph49%29.98 "HgN/A
7:20 PM70 °FPassing clouds.5 mph40%29.98 "HgN/A
6:50 PM72 °FPassing clouds.7 mph38%29.98 "HgN/A
6:20 PM72 °FPassing clouds.8 mph36%29.98 "HgN/A
5:50 PM72 °FPassing clouds.9 mph38%29.98 "HgN/A
5:20 PM72 °FPassing clouds.9 mph38%29.98 "HgN/A
4:50 PM72 °FPassing clouds.9 mph41%29.98 "HgN/A
4:20 PM72 °FPartly sunny.10 mph38%29.98 "HgN/A
3:50 PM70 °FScattered clouds.7 mph40%29.98 "HgN/A
3:20 PM70 °FScattered clouds.8 mph43%29.98 "HgN/A
2:50 PM68 °FScattered clouds.8 mph46%29.98 "HgN/A
2:20 PM68 °FScattered clouds.12 mph43%29.98 "HgN/A
1:50 PM68 °FScattered clouds.12 mph43%30.01 "HgN/A
1:20 PM68 °FScattered clouds.5 mph43%30.01 "HgN/A
12:50 PM66 °FScattered clouds.9 mph49%30.01 "HgN/A
12:20 PM66 °FScattered clouds.8 mph49%30.01 "HgN/A
11:50 AM66 °FScattered clouds.5 mph52%30.01 "HgN/A
11:20 AM64 °FScattered clouds.6 mph60%30.01 "HgN/A
10:50 AM64 °FScattered clouds.6 mph56%30.01 "HgN/A
10:20 AM63 °FScattered clouds.5 mph64%30.01 "HgN/A
9:50 AM63 °FPassing clouds.6 mph64%30.01 "HgN/A
9:20 AM61 °FPassing clouds.7 mph72%30.01 "HgN/A
8:50 AM61 °FPassing clouds.6 mph72%30.01 "HgN/A
8:20 AM59 °FPassing clouds.3 mph77%30.01 "HgN/A
7:50 AM59 °FPassing clouds.3 mph82%30.01 "HgN/A
7:20 AM57 °FScattered clouds.6 mph82%30.01 "HgN/A
6:50 AM57 °FScattered clouds.5 mph88%30.01 "HgN/A
6:20 AM55 °FPassing clouds.6 mph94%30.01 "HgN/A
5:50 AM57 °FPassing clouds.6 mph88%30.01 "HgN/A
5:20 AM55 °FPassing clouds.6 mph94%29.98 "HgN/A
Weather by CustomWeather, © 2015

See weather overviewHow to use our weather pages